星链-36649(STARLINK-36649)

导读 | 豆包AI

STARLINK-36649是美国星链项目的一颗低轨通信卫星,于2026年2月16日发射升空,隶属于SpaceX公司打造的星链星座网络。星链系统旨在为全球用户提供高速低延迟的宽带互联网服务,该卫星入轨后,将进一步扩充星链星座的规模,提升全球覆盖与服务能力,推动星链项目的全球组网进程。

基本信息
目录编号:
67837
目录名称:
STARLINK-36649
国际标识:
2026-033S
轨道中心:
EARTH
卫星名称:
星链-36649
卫星全名:
星链-36649(STARLINK-36649)
卫星状态:
在轨 (已飞行98 天)
发射日期:
2026-02-16 UTC
国别 :
美国 (US)
星等 :
--
轨道信息
数据来源 国际轨道数据
星历时间: 2026-05-25T11:32:43+0800
9小时前
查看轨道信息
半长轴: 6861.144km
偏心率: 0.0001581
轨道倾角: 42.997°
近地点辐角 324.280°
升交点赤经 195.574°
平近点角 35.794°
近地点: 481.922km
远地点: 484.092km
周期: 94.266分钟
每日圈数: 15.275941
详细信息
固有亮度:
5
最大亮度:
2.5
卫星平台:
Starlink V1.0
覆盖范围:
全球
运营商:
太空探索技术公司
运营商所在国:
美国
制造商(研发单位):
太空探索技术公司
制造商所在国:
美国
使用方式:
暂无
卫星简介
Starlink 计划是 SpaceX 推出的全球卫星互联网项目,通过发射低轨道卫星,为全球尤其是偏远地区提供高速、低延迟的互联网服务。自 2019 年起,Starlink 已部署数千颗卫星,旨在缩小全球数字鸿沟,推动互联网普及。该项目还为军事、航空等行业提供通信支持,带来广泛经济效益。
2D轨道图
3D轨道图
轨道高度分析图
轨道倾角分析图
轨道综合分析图
查看轨道综合分析图